Regional Weather Roundup
Issued by NWS

Home | Current Version | Previous Version | Text Only | Print | Product List | Glossary On
Versions: 1 2 3 4 5 6 7 8 9 10 11 12 13 14 15 16 17 18 19 20 21 22 23 24 25 26 27 28 29 30 31 32 33 34 35 36 37 38 39 40 41 42 43 44 45 46 47 48 49 50
000
ASUS43 KFSD 021910
RWRSD

WEATHER ROUNDUP FOR SOUTH DAKOTA
NATIONAL WEATHER SERVICE SIOUX FALLS SD
200 PM CDT TUE SEP 02 2014

NOTE: "FAIR" INDICATES FEW OR NO CLOUDS BELOW 12,000 FEET WITH NO
SIGNIFICANT WEATHER AND/OR OBSTRUCTIONS TO VISIBILITY.


SDZ001>005-009-010-012>017-022000-
NORTHWEST AND NORTH CENTRAL SOUTH DAKOTA

CITY           SKY/WX    TMP DP  RH WIND       PRES   REMARKS
BUFFALO          N/A     75  46  35 NW13      29.81S
FAITH            N/A     78  48  34 SW17      29.85F
MOBRIDGE       SUNNY     80  48  32 W13       29.81F
$$

SDZ012>016-024>037-041>051-057-063-072>074-022000-
SOUTHWEST AND SOUTH CENTRAL SOUTH DAKOTA

CITY           SKY/WX    TMP DP  RH WIND       PRES   REMARKS
RAPID CTY ARPT SUNNY     78  49  35 VRB6      29.89F
PIERRE         SUNNY     79  51  37 SW12      29.86F
CUSTER         SUNNY     73  33  23 W12G18    30.02F
ELLSWORTH AFB  SUNNY     79  47  32 VRB2      29.89F
PHILIP         SUNNY     81  48  31 S15G22    29.86F
PINE RIDGE       N/A    N/A N/A N/A MISG      29.92F
WINNER         FAIR      80  52  37 S8        29.92F
$$

SDZ004>011-016>023-039-040-022000-
NORTHEAST SOUTH DAKOTA

CITY           SKY/WX    TMP DP  RH WIND       PRES   REMARKS
ABERDEEN       SUNNY     76  54  46 SW13G20   29.85F
WATERTOWN      SUNNY     74  53  48 SW16G23   29.90F
SISSETON         N/A     79  52  38 W14G22    29.84F
$$

SDZ017-020-022-023-036>040-048>070-022000-
SOUTHEAST SOUTH DAKOTA

CITY           SKY/WX    TMP DP  RH WIND       PRES   REMARKS
SIOUX FALLS    MOSUNNY   74  55  51 W6        29.94F
HURON          SUNNY     78  50  37 SW14G20   29.89F
CHAMBERLAIN    SUNNY     77  50  38 SW7       29.91F
MITCHELL       SUNNY     76  55  48 SW7       29.93F
YANKTON        SUNNY     73  54  49 CALM      29.95F
$$

ABBREVIATIONS USED IN REMARKS
   TC - TEMPERATURE IN CELSIUS
  WCI - WIND CHILL INDEX
   HX - HEAT INDEX
  VSB - VISIBILITY



USA.gov is the U.S. government's official web portal to all federal, state and local government web resources and services.